Weather History for Sidney-Richland, MT

Change the Weather History Date:

Sunday, January 12, 2014

  Actual Average Record
Temperature  
Mean Temperature 32 °F -  
Max Temperature 41 °F 19 °F 51 °F (1961)
Min Temperature 21 °F 0 °F -46 °F (1916)
Degree Days  
Heating Degree Days 33    
Moisture  
Dew Point 24 °F    
Average Humidity 71    
Maximum Humidity 86    
Minimum Humidity 57    
Precipitation  
Precipitation 0.00 in - - ()
Sea Level Pressure  
Sea Level Pressure 29.47 in    
Wind  
Wind Speed 15 mph (West)    
Max Wind Speed 23 mph    
Max Gust Speed 29 mph    
Visibility 10 miles    
Events      
Averages and records for this station are not official NWS values.
T = Trace of Precipitation, MM = Missing Value Source: NWS Daily Summary

Daily Weather History Graph

Daily Weather History Graph

Search for Another Location

Airport:

Trip Planner

Search our weather history database for the weather conditions in past years. The results will help you decide how hot, cold, wet, or windy it might be!

Date:

Astronomy

Jan. 12, 2014 Rise Set
Actual Time 7:42 AM MST 4:28 PM MST
Civil Twilight 7:07 AM MST 5:03 PM MST
Nautical Twilight 6:28 AM MST 5:42 PM MST
Astronomical Twilight 5:51 AM MST 6:19 PM MST
Moon 1:59 PM MST (1/12) 4:41 AM MST (1/12)
Length of Visible Light 9h 56m
Length of Day
8h 45m
Waxing Gibbous, 90% of the Moon is Illuminated
Jan 12
Waxing Gibbous
Jan 15
Full
Jan 23
Last Quarter
Jan 30
New
Feb 6
First Quarter

Hourly Weather History & Observations

Time (MST) Temp. Windchill Dew Point Humidity Pressure Visibility Wind Dir Wind Speed Gust Speed Precip Events Conditions
12:15 AM 39.2 °F 31.2 °F 30.2 °F 70% 29.25 in 10.0 mi WSW 13.8 mph 19.6 mph N/A   Clear
12:55 AM 39.2 °F 29.6 °F 28.4 °F 65% 29.25 in 10.0 mi WSW 19.6 mph 23.0 mph N/A   Clear
1:15 AM 39.2 °F 30.2 °F 28.4 °F 65% 29.25 in 10.0 mi West 17.3 mph - N/A   Clear
1:35 AM 39.2 °F 29.3 °F 28.4 °F 65% 29.24 in 10.0 mi West 20.7 mph 24.2 mph N/A   Clear
1:55 AM 41.0 °F 31.1 °F 26.6 °F 57% 29.24 in 10.0 mi West 23.0 mph 28.8 mph N/A   Clear
2:15 AM 39.2 °F 29.8 °F 26.6 °F 61% 29.25 in 10.0 mi West 18.4 mph - N/A   Clear
2:55 AM 39.2 °F 29.0 °F 26.6 °F 61% 29.25 in 10.0 mi West 21.9 mph 27.6 mph N/A   Clear
3:15 AM 39.2 °F 30.2 °F 26.6 °F 61% 29.26 in 10.0 mi West 17.3 mph 27.6 mph N/A   Clear
3:35 AM 37.4 °F 27.5 °F 26.6 °F 65% 29.26 in 10.0 mi WSW 18.4 mph 21.9 mph N/A   Clear
3:55 AM 37.4 °F 27.8 °F 26.6 °F 65% 29.27 in 10.0 mi WSW 17.3 mph 20.7 mph N/A   Clear
4:15 AM 37.4 °F 30.3 °F 24.8 °F 60% 29.27 in 10.0 mi SW 10.4 mph - N/A   Clear
4:35 AM 33.8 °F 27.0 °F 24.8 °F 70% 29.28 in 10.0 mi South 8.1 mph - N/A   Clear
4:55 AM 33.8 °F 26.4 °F 24.8 °F 70% 29.27 in 10.0 mi South 9.2 mph - N/A   Clear
5:35 AM 32.0 °F 27.5 °F 24.8 °F 75% 29.28 in 10.0 mi SSW 4.6 mph - N/A   Clear
5:55 AM 30.2 °F 23.4 °F 24.8 °F 80% 29.28 in 10.0 mi South 6.9 mph - N/A   Clear
6:15 AM 30.2 °F 22.6 °F 24.8 °F 80% 29.28 in 10.0 mi SSW 8.1 mph - N/A   Clear
6:35 AM 33.8 °F 24.8 °F 24.8 °F 70% 29.29 in 10.0 mi SSW 12.7 mph - N/A   Clear
6:55 AM 33.8 °F 24.3 °F 24.8 °F 70% 29.29 in 10.0 mi SSW 13.8 mph - N/A   Clear
7:15 AM 35.6 °F 27.5 °F 24.8 °F 65% 29.29 in 10.0 mi SSW 11.5 mph - N/A   Clear
7:35 AM 33.8 °F 24.3 °F 24.8 °F 70% 29.30 in 10.0 mi South 13.8 mph - N/A   Clear
8:15 AM 30.2 °F 20.8 °F 24.8 °F 80% 29.31 in 10.0 mi South 11.5 mph - N/A   Clear
8:35 AM 30.2 °F 21.3 °F 24.8 °F 80% 29.32 in 10.0 mi South 10.4 mph - N/A   Clear
8:55 AM 33.8 °F 23.9 °F 26.6 °F 75% 29.32 in 10.0 mi SSW 15.0 mph - N/A   Clear
9:15 AM 35.6 °F 27.1 °F 26.6 °F 70% 29.33 in 10.0 mi SSW 12.7 mph - N/A   Clear
9:35 AM 35.6 °F 28.0 °F 26.6 °F 70% 29.34 in 10.0 mi SSW 10.4 mph - N/A   Clear
9:55 AM 35.6 °F 29.9 °F 26.6 °F 70% 29.35 in 10.0 mi SSW 6.9 mph - N/A   Clear
10:15 AM 35.6 °F 29.2 °F 26.6 °F 70% 29.36 in 10.0 mi SSW 8.1 mph - N/A   Clear
10:35 AM 39.2 °F 30.8 °F 26.6 °F 61% 29.36 in 10.0 mi WSW 15.0 mph - N/A   Clear
10:55 AM 39.2 °F 30.5 °F 26.6 °F 61% 29.36 in 10.0 mi WSW 16.1 mph 20.7 mph N/A   Clear
11:15 AM 39.2 °F 30.5 °F 26.6 °F 61% 29.36 in 10.0 mi West 16.1 mph 23.0 mph N/A   Mostly Cloudy
11:35 AM 39.2 °F 31.6 °F 26.6 °F 61% 29.37 in 10.0 mi West 12.7 mph - N/A   Scattered Clouds
11:55 AM 39.2 °F 30.5 °F 26.6 °F 61% 29.37 in 10.0 mi West 16.1 mph 21.9 mph N/A   Clear
12:15 PM 39.2 °F 31.2 °F 28.4 °F 65% 29.37 in 10.0 mi West 13.8 mph 24.2 mph N/A   Clear
12:35 PM 39.2 °F 30.2 °F 28.4 °F 65% 29.37 in 10.0 mi West 17.3 mph 23.0 mph N/A   Clear
12:55 PM 39.2 °F 30.2 °F 28.4 °F 65% 29.38 in 10.0 mi West 17.3 mph 21.9 mph N/A   Clear
1:15 PM 39.2 °F 30.5 °F 28.4 °F 65% 29.40 in 10.0 mi WNW 16.1 mph 20.7 mph N/A   Scattered Clouds
1:35 PM 37.4 °F 28.5 °F 28.4 °F 70% 29.42 in 10.0 mi WNW 15.0 mph - N/A   Mostly Cloudy
1:55 PM 37.4 °F 28.9 °F 28.4 °F 70% 29.44 in 10.0 mi WNW 13.8 mph - N/A   Overcast
2:15 PM 37.4 °F 26.9 °F 28.4 °F 70% 29.47 in 10.0 mi NW 20.7 mph 28.8 mph N/A   Overcast
2:35 PM 35.6 °F 24.2 °F 26.6 °F 70% 29.50 in 10.0 mi NW 21.9 mph 28.8 mph N/A   Overcast
2:55 PM 33.8 °F 23.2 °F 26.6 °F 75% 29.53 in 10.0 mi NW 17.3 mph 27.6 mph N/A   Overcast
3:15 PM 33.8 °F 23.5 °F 26.6 °F 75% 29.56 in 9.0 mi NNW 16.1 mph 20.7 mph N/A   Overcast
3:35 PM 33.8 °F 21.6 °F 26.6 °F 75% 29.59 in 5.0 mi NW 23.0 mph 27.6 mph N/A   Overcast
3:55 PM 30.2 °F 19.3 °F 26.6 °F 86% 29.61 in 4.0 mi NW 15.0 mph 28.8 mph N/A   Overcast
4:15 PM 30.2 °F 20.2 °F 24.8 °F 80% 29.63 in 10.0 mi NW 12.7 mph 19.6 mph N/A   Scattered Clouds
4:35 PM 30.2 °F 19.8 °F 24.8 °F 80% 29.64 in 10.0 mi NW 13.8 mph - N/A   Clear
4:55 PM 30.2 °F 19.8 °F 24.8 °F 80% 29.65 in 10.0 mi WNW 13.8 mph 18.4 mph N/A   Clear
5:15 PM 30.2 °F 20.2 °F 24.8 °F 80% 29.68 in 10.0 mi WNW 12.7 mph - N/A   Partly Cloudy
5:35 PM 30.2 °F 20.8 °F 24.8 °F 80% 29.69 in 10.0 mi WNW 11.5 mph 17.3 mph N/A   Mostly Cloudy
5:55 PM 30.2 °F 20.2 °F 21.2 °F 69% 29.69 in 10.0 mi NW 12.7 mph 16.1 mph N/A   Partly Cloudy
6:15 PM 28.4 °F 16.2 °F 21.2 °F 74% 29.68 in 10.0 mi NW 17.3 mph 20.7 mph N/A   Clear
6:35 PM 28.4 °F 18.0 °F 21.2 °F 74% 29.68 in 10.0 mi WNW 12.7 mph 24.2 mph N/A   Clear
6:55 PM 28.4 °F 16.6 °F 21.2 °F 74% 29.69 in 10.0 mi WNW 16.1 mph 20.7 mph N/A   Clear
7:15 PM 28.4 °F 17.5 °F 21.2 °F 74% 29.69 in 10.0 mi WNW 13.8 mph 25.3 mph N/A   Clear
7:35 PM 28.4 °F 18.5 °F 19.4 °F 69% 29.70 in 10.0 mi West 11.5 mph 19.6 mph N/A   Partly Cloudy
7:55 PM 28.4 °F 18.0 °F 21.2 °F 74% 29.70 in 10.0 mi West 12.7 mph 19.6 mph N/A   Partly Cloudy
8:15 PM 28.4 °F 16.2 °F 21.2 °F 74% 29.69 in 10.0 mi WNW 17.3 mph 20.7 mph N/A   Mostly Cloudy
8:35 PM 28.4 °F 17.0 °F 19.4 °F 69% 29.70 in 10.0 mi West 15.0 mph 24.2 mph N/A   Scattered Clouds
8:55 PM 28.4 °F 18.0 °F 19.4 °F 69% 29.71 in 10.0 mi West 12.7 mph 20.7 mph N/A   Mostly Cloudy
9:15 PM 26.6 °F 17.5 °F 19.4 °F 74% 29.71 in 10.0 mi WSW 9.2 mph - N/A   Mostly Cloudy
9:35 PM 26.6 °F 16.8 °F 19.4 °F 74% 29.72 in 10.0 mi WSW 10.4 mph - N/A   Scattered Clouds
9:55 PM 24.8 °F 14.6 °F 17.6 °F 74% 29.71 in 10.0 mi West 10.4 mph - N/A   Partly Cloudy
10:15 PM 24.8 °F 14.6 °F 17.6 °F 74% 29.71 in 10.0 mi West 10.4 mph - N/A   Clear
10:35 PM 24.8 °F 14.0 °F 17.6 °F 74% 29.71 in 10.0 mi WNW 11.5 mph - N/A   Scattered Clouds
10:55 PM 26.6 °F 16.2 °F 17.6 °F 69% 29.70 in 10.0 mi WNW 11.5 mph - N/A   Mostly Cloudy
11:15 PM 24.8 °F 17.9 °F 17.6 °F 74% 29.70 in 10.0 mi NW 5.8 mph - N/A   Clear
11:35 PM 23.0 °F - 15.8 °F 74% 29.70 in 10.0 mi Calm Calm - N/A   Clear
11:55 PM 21.2 °F 10.9 °F 15.8 °F 80% 29.70 in 10.0 mi SSE 9.2 mph - N/A   Clear